Weather History for KCHA - September, 2013

Change the Weather History Date:

Thursday, September 19, 2013

  Actual Average Record
Temperature  
Mean Temperature 74 °F 71 °F  
Max Temperature 86 °F 82 °F 100 °F (1925)
Min Temperature 62 °F 61 °F 42 °F (1981)
Degree Days  
Heating Degree Days 0 1  
Month to date heating degree days 0 1  
Since 1 July heating degree days 0 1  
Cooling Degree Days 9 7  
Month to date cooling degree days 230 183  
Year to date cooling degree days 1622 1633  
Growing Degree Days 24 (Base 50)    
Moisture  
Dew Point 62 °F    
Average Humidity 71    
Maximum Humidity 93    
Minimum Humidity 48    
Precipitation  
Precipitation 0.00 in 0.13 in 1.77 in (1943)
Month to date precipitation 0.31 2.49  
Year to date precipitation 54.51 37.75  
Snow  
Snow 0.00 in 0.00 in - ()
Month to date snowfall 0.0 0.0  
Since 1 July snowfall 0.0 0.0  
Since 1 September snowfall 0.0 0.0  
Snow Depth 0.00 in    
Sea Level Pressure  
Sea Level Pressure 30.13 in    
Wind  
Wind Speed 2 mph (South)    
Max Wind Speed 10 mph    
Max Gust Speed 20 mph    
Visibility 10 miles    
Events      
T = Trace of Precipitation, MM = Missing Value Source: NWS Daily Summary

Daily Weather History Graph

Daily Weather History Graph

Search for Another Location

Airport or City:

Trip Planner

Search our weather history database for the weather conditions in past years. The results will help you decide how hot, cold, wet, or windy it might be!

Date:

Astronomy

Sep. 19, 2013 Rise Set
Actual Time 7:26 AM EDT 7:41 PM EDT
Civil Twilight 7:01 AM EDT 8:06 PM EDT
Nautical Twilight 6:31 AM EDT 8:36 PM EDT
Astronomical Twilight 6:01 AM EDT 9:06 PM EDT
Moon 7:42 PM EDT (9/19) 7:33 AM EDT (9/19)
Length of Visible Light 13h 05m
Length of Day
12h 14m
Full, 100% of the Moon is Illuminated
Sep 19
Full
Sep 26
Last Quarter
Oct 4
New
Oct 11
First Quarter
Oct 18
Full

Hourly Weather History & Observations

Time (EDT) Temp. Heat Index Dew Point Humidity Pressure Visibility Wind Dir Wind Speed Gust Speed Precip Events Conditions
12:53 AM 66.9 °F - 62.1 °F 84% 30.15 in 10.0 mi Calm Calm - N/A   Clear
1:53 AM 66.9 °F - 62.1 °F 84% 30.15 in 10.0 mi Calm Calm - N/A   Clear
2:53 AM 66.0 °F - 61.0 °F 84% 30.15 in 10.0 mi Calm Calm - N/A   Clear
3:53 AM 64.9 °F - 61.0 °F 87% 30.15 in 10.0 mi Calm Calm - N/A   Clear
4:53 AM 63.0 °F - 60.1 °F 90% 30.15 in 9.0 mi Calm Calm - N/A   Clear
5:53 AM 64.0 °F - 60.1 °F 87% 30.14 in 10.0 mi Calm Calm - N/A   Clear
6:53 AM 63.0 °F - 60.1 °F 90% 30.16 in 10.0 mi Calm Calm - N/A   Clear
7:53 AM 62.1 °F - 59.0 °F 90% 30.18 in 10.0 mi Calm Calm - N/A   Clear
8:53 AM 66.0 °F - 61.0 °F 84% 30.19 in 10.0 mi Calm Calm - N/A   Clear
9:53 AM 71.1 °F - 60.1 °F 68% 30.19 in 10.0 mi SSW 4.6 mph - N/A   Partly Cloudy
10:53 AM 73.0 °F - 60.1 °F 64% 30.20 in 10.0 mi Variable 5.8 mph - N/A   Scattered Clouds
11:53 AM 77.0 °F - 60.1 °F 56% 30.18 in 10.0 mi SSW 5.8 mph - N/A   Partly Cloudy
12:53 PM 79.0 °F - 61.0 °F 54% 30.17 in 10.0 mi SW 6.9 mph - N/A   Partly Cloudy
1:53 PM 81.0 °F 81.9 °F 62.1 °F 52% 30.14 in 10.0 mi Variable 3.5 mph - N/A   Scattered Clouds
2:53 PM 82.9 °F 83.7 °F 62.1 °F 49% 30.12 in 10.0 mi South 6.9 mph - N/A   Scattered Clouds
3:53 PM 84.0 °F 84.9 °F 63.0 °F 49% 30.10 in 10.0 mi Variable 3.5 mph - N/A   Scattered Clouds
4:53 PM 84.0 °F 84.9 °F 63.0 °F 49% 30.07 in 10.0 mi ESE 5.8 mph - N/A   Partly Cloudy
5:53 PM 84.0 °F 84.9 °F 63.0 °F 49% 30.07 in 10.0 mi SSE 4.6 mph - N/A   Partly Cloudy
6:53 PM 82.9 °F 84.0 °F 63.0 °F 51% 30.06 in 10.0 mi SSE 3.5 mph - N/A   Partly Cloudy
7:53 PM 80.1 °F 81.7 °F 64.0 °F 58% 30.05 in 10.0 mi SE 3.5 mph - N/A   Partly Cloudy
8:53 PM 77.0 °F - 64.0 °F 64% 30.06 in 10.0 mi Calm Calm - N/A   Partly Cloudy
9:53 PM 75.0 °F - 64.9 °F 71% 30.07 in 10.0 mi Calm Calm - N/A   Clear
10:53 PM 73.0 °F - 64.9 °F 76% 30.07 in 10.0 mi Calm Calm - N/A   Clear
11:53 PM 71.1 °F - 64.9 °F 81% 30.07 in 10.0 mi Calm Calm - N/A   Clear